Home   Weather   Stockton   Past weeks
Flag for USA

Past Weather in Stockton, California, USA — Yesterday and Last 2 Weeks

Now
76 °F

Sunny.


Feels Like: 78 °F
Forecast: 94 / 63 °F
Wind: 6 mph from West

Location: Stockton Metropolitan Airport

Current Time: Jul 16, 2019 at 9:32:02 am

Latest Report: Jul 16, 2019 at 8:55 am


Visibility: 10 mi

Pressure: 29.87 "Hg

Humidity: 50%

Dew Point: 56 °F

Location of StocktonLocation

Past Weather in Stockton — Graph

°F

Stockton Temperature Yesterday

Maximum temperature yesterday: 97 °F (at 2:55 pm)
Minimum temperature yesterday: 63 °F (at 5:55 am)
Average temperature yesterday: 81 °F

High & Low Weather Summary for the Past Weeks

 TemperatureHumidityPressure
High99 °F (Jul 13, 4:55 pm)81% (Jul 10, 4:55 am)30.06 "Hg (Jul 10, 4:55 am)
Low57 °F (Jul 9, 6:05 am)15% (Jul 6, 3:55 pm)29.77 "Hg (Jul 12, 5:55 pm)
Average76 °F45%29.91 "Hg
* Reported Jul 1 7:55 am — Jul 16 7:55 am, Stockton. Weather by CustomWeather, © 2019

Note: Actual official high and low records may vary slightly from our data, if they occured in-between our weather recording intervals... More about our weather records

Advertising

Stockton Weather History for the Previous 24 Hours

Scroll right to see more
 ConditionsComfort  
Time TempWeatherWind HumidityBarometerVisibility
7:55 am
Tue, Jul 16
72 °FSunny.7 mph57%29.86 "Hg10 mi
6:55 am68 °FSunny.5 mph63%29.86 "Hg10 mi
5:55 am65 °FSunny.5 mph68%29.85 "Hg10 mi
4:55 am67 °FClear.3 mph66%29.85 "Hg10 mi
3:55 am68 °FClear.7 mph63%29.85 "Hg10 mi
2:55 am69 °FClear.8 mph61%29.85 "Hg10 mi
1:55 am70 °FClear.10 mph59%29.85 "Hg10 mi
12:55 am70 °FClear.10 mph59%29.87 "Hg10 mi
11:55 pm
Mon, Jul 15
71 °FClear.6 mph55%29.88 "Hg10 mi
10:55 pm73 °FClear.13 mph51%29.87 "Hg10 mi
9:55 pm75 °FClear.12 mph48%29.87 "Hg10 mi
8:55 pm78 °FClear.17 mph43%29.87 "Hg10 mi
7:55 pm83 °FSunny.16 mph37%29.86 "Hg10 mi
6:55 pm88 °FSunny.20 mph30%29.86 "Hg10 mi
5:55 pm94 °FSunny.14 mph23%29.86 "Hg10 mi
4:55 pm97 °FSunny.17 mph20%29.87 "Hg10 mi
3:55 pm97 °FSunny.13 mph23%29.88 "Hg10 mi
2:55 pm97 °FSunny.13 mph22%29.90 "Hg10 mi
1:55 pm96 °FSunny.12 mph23%29.93 "Hg10 mi
12:55 pm94 °FSunny.13 mph24%29.94 "Hg10 mi
11:55 am91 °FSunny.12 mph25%29.96 "Hg10 mi
10:55 am87 °FSunny.8 mph29%29.96 "Hg10 mi
9:55 am84 °FSunny.12 mph33%29.96 "Hg10 mi
Weather by CustomWeather, © 2019

See weather overview

LIVE PARTIAL LUNAR ECLIPSE – Watch the eclipse as it happens